Weather History for EGXE - March, 2013

Change the Weather History Date:

Saturday, March 2, 2013

  Actual Average (EGNV) Record (EGNV)
Temperature  
Mean Temperature 38 °F -  
Max Temperature 51 °F 48 °F 55 °F (1999)
Min Temperature 24 °F 35 °F 19 °F (2001)
Degree Days  
Heating Degree Days 28    
Moisture  
Dew Point 33 °F    
Average Humidity 76    
Maximum Humidity 100    
Minimum Humidity 44    
Precipitation  
Precipitation 0.00 in 0.06 in - ()
Sea Level Pressure  
Sea Level Pressure 30.32 in    
Wind  
Wind Speed 4 mph ()    
Max Wind Speed 13 mph    
Max Gust Speed -    
Visibility 7.5 miles    
Events      
Averages and records for this station are not official NWS values.
T = Trace of Precipitation, MM = Missing Value Source: Averaged Metar Reports

Daily Weather History Graph

Daily Weather History Graph

Search for Another Location

Airport or City:

Trip Planner

Search our weather history database for the weather conditions in past years. The results will help you decide how hot, cold, wet, or windy it might be!

Date:

Astronomy

Mar. 02, 2013 Rise Set
Actual Time 6:52 AM GMT 5:44 PM GMT
Civil Twilight 6:16 AM GMT 6:20 PM GMT
Nautical Twilight 5:35 AM GMT 7:01 PM GMT
Astronomical Twilight 4:54 AM GMT 7:43 PM GMT
Moon No Moon Rise 8:17 AM GMT (3/2)
Length of Visible Light 12h 04m
Length of Day
10h 52m
Waning Gibbous, 76% of the Moon is Illuminated
Mar 2
Waning Gibbous
Mar 4
Last Quarter
Mar 11
New
Mar 19
First Quarter
Mar 27
Full

Hourly Weather History & Observations

Time (GMT) Temp. Windchill Dew Point Humidity Pressure Visibility Wind Dir Wind Speed Gust Speed Precip Events Conditions
12:50 AM 28.4 °F 22.2 °F 28.4 °F 100% 30.45 in 6.2 mi West 5.8 mph - N/A   Unknown
1:50 AM 30.2 °F - 30.2 °F 100% 30.42 in 6.2 mi West 1.2 mph - N/A   Unknown
2:50 AM 30 °F - 29 °F 94% 30.43 in 9 mi West 6.9 mph - -  
2:50 AM 30.2 °F 23.4 °F 28.4 °F 93% 30.39 in 6.2 mi West 6.9 mph - N/A   Unknown
3:50 AM 28.4 °F - 28.4 °F 100% 30.39 in 6.2 mi West 1.2 mph - N/A   Unknown
4:50 AM 26.6 °F - 24.8 °F 93% 30.36 in 6.2 mi SE 1.2 mph - N/A   Unknown
5:50 AM 28.4 °F 24.6 °F 28.4 °F 100% 30.36 in 6.2 mi SSE 3.5 mph - N/A   Unknown
6:50 AM 24.8 °F - 24.8 °F 100% 30.36 in 6.2 mi South 2.3 mph - N/A   Unknown
7:50 AM 26.6 °F - 26.6 °F 100% 30.36 in 6.2 mi SSW 1.2 mph - N/A   Unknown
8:50 AM 35.6 °F 32.8 °F 26.6 °F 70% 30.33 in 6.2 mi SSW 3.5 mph - N/A   Unknown
9:50 AM 42.8 °F 38.0 °F 33.8 °F 70% 30.33 in 6.2 mi WNW 8.1 mph - N/A   Unknown
10:50 AM 46.4 °F 41.1 °F 33.8 °F 62% 30.33 in 6.2 mi WNW 11.5 mph - N/A   Unknown
11:50 AM 48 °F - 34 °F 46% 30.33 in 16 mi NNW 12.7 mph - -  
11:50 AM 48.2 °F - 33.8 °F 58% 30.30 in 6.2 mi NNW 12.7 mph - N/A   Unknown
12:50 PM 48.2 °F - 33.8 °F 58% 30.30 in 6.2 mi NW 10.4 mph - N/A   Unknown
1:50 PM 51.8 °F - 35.6 °F 54% 30.27 in 6.2 mi NW 8.1 mph - N/A   Mostly Cloudy
2:50 PM 50 °F - 35 °F 44% 30.28 in 16 mi NW 4.6 mph - -   Scattered Clouds
2:50 PM 50.0 °F - 35.6 °F 58% 30.27 in 6.2 mi NW 4.6 mph - N/A   Partly Cloudy
3:50 PM 48.2 °F - 33.8 °F 58% 30.24 in 6.2 mi NNE 5.8 mph - N/A   Partly Cloudy
4:50 PM 48.2 °F - 35.6 °F 62% 30.24 in 6.2 mi NE 1.2 mph - N/A   Partly Cloudy
5:50 PM 43 °F - 35 °F 64% 30.27 in 15 mi North 1.2 mph - -   Scattered Clouds
5:50 PM 42.8 °F - 35.6 °F 76% 30.27 in 6.2 mi North 1.2 mph - N/A   Partly Cloudy
6:50 PM 44.6 °F 42.2 °F 37.4 °F 76% 30.27 in 6.2 mi SW 4.6 mph - N/A   Mostly Cloudy
7:50 PM 42.8 °F - 37.4 °F 81% 30.27 in 6.2 mi West 2.3 mph - N/A   Overcast
8:50 PM 43 °F - 38 °F 74% 30.29 in 9 mi WSW 4.6 mph - -   Overcast
8:50 PM 42.8 °F 40.1 °F 37.4 °F 81% 30.27 in 6.2 mi WSW 4.6 mph - N/A   Overcast
10:50 PM 41.0 °F - 37.4 °F 87% 30.27 in 6.2 mi West 2.3 mph - N/A   Overcast
11:50 PM 41 °F - 37 °F 80% 30.28 in 9 mi WSW 2.3 mph - -   Overcast